UP1225 UWGG-USSS

Flight info

Callsign UP1225
Flight time 1h 33m
Altitude 31000
Route PESAB T765 GEMKI L94 LOMBI
Aircraft A306/H-SDE3FGHIRWY/LB1

Departure

Time 2026-05-09 12:43
Airport Nizhny Novgorod / Strigino International Airport (UWGG)

Arrival

Time 2026-05-09 14:16
Airport Koltsovo Airport (USSS)
Time Latitude Longitude Altitude Speed Heading
2026-05-09 12:28 56.22402 43.78900 272 ft 0 kts 146°
2026-05-09 12:36 56.22353 43.78955 272 ft 8 kts 158°
2026-05-09 12:36 56.22316 43.78943 272 ft 5 kts 192°
2026-05-09 12:36 56.22282 43.78930 272 ft 5 kts 191°
2026-05-09 12:37 56.22246 43.78918 272 ft 5 kts 191°
2026-05-09 12:37 56.22210 43.78906 273 ft 5 kts 191°
2026-05-09 12:37 56.22173 43.78894 272 ft 5 kts 190°
2026-05-09 12:37 56.22136 43.78881 272 ft 6 kts 190°
2026-05-09 12:38 56.22101 43.78863 272 ft 3 kts 214°
2026-05-09 12:38 56.22086 43.78833 272 ft 3 kts 233°
2026-05-09 12:38 56.22073 43.78803 274 ft 3 kts 233°
2026-05-09 12:38 56.22058 43.78768 272 ft 5 kts 233°
2026-05-09 12:39 56.22027 43.78733 272 ft 6 kts 185°
2026-05-09 12:39 56.21978 43.78724 272 ft 8 kts 187°
2026-05-09 12:39 56.21923 43.78687 272 ft 7 kts 231°
2026-05-09 12:39 56.21888 43.78614 272 ft 9 kts 210°
2026-05-09 12:40 56.21830 43.78582 272 ft 10 kts 194°
2026-05-09 12:40 56.21756 43.78550 272 ft 12 kts 193°
2026-05-09 12:40 56.21664 43.78514 272 ft 15 kts 191°
2026-05-09 12:40 56.21557 43.78481 272 ft 17 kts 190°
2026-05-09 12:41 56.21487 43.78369 272 ft 14 kts 259°
2026-05-09 12:41 56.21500 43.78193 273 ft 15 kts 281°
2026-05-09 12:41 56.21564 43.78073 274 ft 14 kts 352°
2026-05-09 12:41 56.21621 43.78082 275 ft 0 kts
2026-05-09 12:42 56.21843 43.78160 273 ft 75 kts 11°
2026-05-09 12:42 56.22587 43.78430 271 ft 140 kts 11°
2026-05-09 12:42 56.23725 43.78855 509 ft 183 kts 12°
2026-05-09 12:43 56.24898 43.79320 1015 ft 163 kts 13°
2026-05-09 12:43 56.25970 43.79791 1241 ft 157 kts 12°
2026-05-09 12:43 56.27037 43.80160 956 ft 157 kts
2026-05-09 12:43 56.28122 43.80417 1379 ft 169 kts
2026-05-09 12:44 56.29409 43.80806 1932 ft 200 kts
2026-05-09 12:44 56.30862 43.81133 2553 ft 221 kts
2026-05-09 12:44 56.32464 43.81396 3136 ft 246 kts
2026-05-09 12:44 56.34229 43.81980 3827 ft 265 kts 15°
2026-05-09 12:45 56.35981 43.82901 5202 ft 257 kts 15°
2026-05-09 12:45 56.37685 43.83808 6567 ft 256 kts 19°
2026-05-09 12:45 56.39261 43.85320 7719 ft 261 kts 35°
2026-05-09 12:45 56.40480 43.87808 8827 ft 272 kts 57°
2026-05-09 12:46 56.41083 43.91104 9911 ft 285 kts 80°
2026-05-09 12:46 56.40976 43.94736 10588 ft 296 kts 96°
2026-05-09 12:46 56.40587 43.98435 10914 ft 302 kts 99°
2026-05-09 12:46 56.40160 44.02157 10930 ft 303 kts 99°
2026-05-09 12:47 56.39741 44.05897 11095 ft 305 kts 99°
2026-05-09 12:47 56.39328 44.09690 11762 ft 311 kts 98°
2026-05-09 12:47 56.38915 44.13555 12681 ft 317 kts 98°
2026-05-09 12:47 56.38497 44.17511 13550 ft 324 kts 98°
2026-05-09 12:48 56.37876 44.21466 14217 ft 333 kts 115°
2026-05-09 12:48 56.36580 44.24938 14705 ft 337 kts 129°
2026-05-09 12:48 56.35051 44.28289 15040 ft 356 kts 130°
2026-05-09 12:48 56.33413 44.31804 15355 ft 376 kts 130°
2026-05-09 12:49 56.31699 44.35505 15662 ft 394 kts 130°
2026-05-09 12:49 56.29911 44.39387 15960 ft 411 kts 130°
2026-05-09 12:49 56.28055 44.43428 16247 ft 426 kts 130°
2026-05-09 12:49 56.26148 44.47583 16758 ft 434 kts 130°
2026-05-09 12:50 56.24209 44.51802 17360 ft 440 kts 130°
2026-05-09 12:50 56.22249 44.56066 17983 ft 445 kts 130°
2026-05-09 12:50 56.20263 44.60378 18566 ft 450 kts 130°
2026-05-09 12:50 56.18256 44.64729 19106 ft 455 kts 130°
2026-05-09 12:51 56.16228 44.69116 19638 ft 458 kts 131°
2026-05-09 12:51 56.14185 44.73526 20151 ft 462 kts 131°
2026-05-09 12:51 56.12123 44.77970 20655 ft 465 kts 131°
2026-05-09 12:51 56.10044 44.82443 21135 ft 469 kts 131°
2026-05-09 12:52 56.07950 44.86940 21628 ft 472 kts 131°
2026-05-09 12:52 56.05841 44.91463 22111 ft 475 kts 131°
2026-05-09 12:52 56.03857 44.96128 22582 ft 480 kts 125°
2026-05-09 12:52 56.02302 45.01441 23042 ft 486 kts 112°
2026-05-09 12:53 56.01374 45.07337 23498 ft 489 kts 99°
2026-05-09 12:53 56.01136 45.13311 23907 ft 490 kts 88°
2026-05-09 12:53 56.01240 45.19414 24251 ft 493 kts 85°
2026-05-09 12:53 56.01489 45.25537 24593 ft 495 kts 83°
2026-05-09 12:54 56.01797 45.31684 24938 ft 498 kts 83°
2026-05-09 12:54 56.02114 45.37858 25267 ft 500 kts 83°
2026-05-09 12:54 56.02416 45.44072 25593 ft 503 kts 83°
2026-05-09 12:54 56.02699 45.50326 25904 ft 506 kts 84°
2026-05-09 12:55 56.02964 45.56616 26204 ft 509 kts 84°
2026-05-09 12:55 56.03216 45.62938 26506 ft 511 kts 84°
2026-05-09 12:55 56.03462 45.69296 26798 ft 514 kts 84°
2026-05-09 12:55 56.03704 45.75692 27087 ft 516 kts 84°
2026-05-09 12:56 56.03942 45.82103 27358 ft 518 kts 84°
2026-05-09 12:56 56.04179 45.88554 27626 ft 521 kts 85°
2026-05-09 12:56 56.04415 45.95031 27889 ft 523 kts 85°
2026-05-09 12:56 56.04648 46.01524 28213 ft 523 kts 85°
2026-05-09 12:57 56.04877 46.08007 28594 ft 523 kts 85°
2026-05-09 12:57 56.05104 46.14499 28897 ft 525 kts 84°
2026-05-09 12:57 56.05331 46.21044 29130 ft 528 kts 84°
2026-05-09 12:57 56.05550 46.27500 29529 ft 527 kts 84°
2026-05-09 12:58 56.05768 46.34030 29943 ft 525 kts 84°
2026-05-09 12:58 56.05982 46.40552 30347 ft 525 kts 85°
2026-05-09 12:58 56.06193 46.47066 30661 ft 524 kts 85°
2026-05-09 12:58 56.06386 46.53581 30983 ft 524 kts 86°
2026-05-09 12:59 56.06503 46.60108 31183 ft 525 kts 87°
2026-05-09 12:59 56.06569 46.66539 31199 ft 507 kts 88°
2026-05-09 12:59 56.06608 46.72741 31198 ft 492 kts 88°
2026-05-09 13:00 56.06679 46.84905 31209 ft 488 kts 88°
2026-05-09 13:00 56.06763 46.97064 31212 ft 491 kts 87°
2026-05-09 13:01 56.06850 47.09299 31213 ft 492 kts 87°
2026-05-09 13:01 56.06926 47.21547 31209 ft 492 kts 87°
2026-05-09 13:02 56.06988 47.33770 31211 ft 491 kts 87°
2026-05-09 13:02 56.07039 47.45990 31212 ft 491 kts 87°
2026-05-09 13:03 56.07077 47.58208 31209 ft 491 kts 88°
2026-05-09 13:03 56.07102 47.70438 31207 ft 493 kts 87°
2026-05-09 13:04 56.07117 47.82745 31193 ft 495 kts 87°
2026-05-09 13:04 56.07120 47.95001 31190 ft 496 kts 87°
2026-05-09 13:05 56.07113 48.07341 31188 ft 496 kts 88°
2026-05-09 13:05 56.07095 48.19670 31190 ft 495 kts 88°
2026-05-09 13:06 56.07065 48.31993 31189 ft 495 kts 88°
2026-05-09 13:06 56.07022 48.44319 31200 ft 496 kts 88°
2026-05-09 13:07 56.06967 48.56722 31186 ft 500 kts 88°
2026-05-09 13:07 56.06910 48.67148 31188 ft 500 kts 88°
2026-05-09 13:08 56.06831 48.79597 31180 ft 500 kts 88°
2026-05-09 13:08 56.06741 48.92031 31187 ft 500 kts 88°
2026-05-09 13:09 56.06639 49.04379 31183 ft 499 kts 88°
2026-05-09 13:09 56.06523 49.16807 31222 ft 499 kts 88°
2026-05-09 13:10 56.06394 49.29273 31177 ft 503 kts 88°
2026-05-09 13:10 56.06252 49.41798 31177 ft 503 kts 88°
2026-05-09 13:11 56.06097 49.54310 31167 ft 503 kts 88°
2026-05-09 13:11 56.05930 49.66832 31169 ft 503 kts 88°
2026-05-09 13:12 56.05750 49.79353 31164 ft 503 kts 89°
2026-05-09 13:12 56.05557 49.91860 31165 ft 503 kts 89°
2026-05-09 13:13 56.05353 50.04399 31168 ft 506 kts 89°
2026-05-09 13:13 56.05135 50.16992 31161 ft 507 kts 89°
2026-05-09 13:14 56.04903 50.29602 31162 ft 507 kts 89°
2026-05-09 13:16 56.03849 50.80007 31156 ft 509 kts 89°
2026-05-09 13:16 56.03712 50.92665 31152 ft 509 kts 86°
2026-05-09 13:17 56.03792 51.05226 31149 ft 509 kts 86°
2026-05-09 13:17 56.03879 51.17965 31144 ft 509 kts 86°
2026-05-09 13:18 56.03924 51.30528 31136 ft 509 kts 86°
2026-05-09 13:18 56.03940 51.43195 31210 ft 509 kts 86°
2026-05-09 13:19 56.03938 51.55898 31144 ft 513 kts 86°
2026-05-09 13:19 56.03926 51.68665 31132 ft 513 kts 86°
2026-05-09 13:20 56.03903 51.81431 31132 ft 513 kts 86°
2026-05-09 13:20 56.04184 51.94143 31130 ft 511 kts 82°
2026-05-09 13:21 56.04690 52.06803 31128 ft 511 kts 81°
2026-05-09 13:21 56.05181 52.19487 31134 ft 512 kts 81°
2026-05-09 13:22 56.05620 52.32211 31129 ft 513 kts 82°
2026-05-09 13:22 56.06028 52.44953 31102 ft 513 kts 82°
2026-05-09 13:23 56.06950 52.76854 31107 ft 513 kts 83°
2026-05-09 13:24 56.07266 52.89614 31103 ft 513 kts 83°
2026-05-09 13:24 56.07573 53.02381 31097 ft 514 kts 83°
2026-05-09 13:25 56.07871 53.15159 31100 ft 514 kts 83°
2026-05-09 13:26 56.08291 53.34252 31095 ft 514 kts 84°
2026-05-09 13:26 56.08556 53.47028 31092 ft 513 kts 84°
2026-05-09 13:27 56.08808 53.59814 31089 ft 514 kts 84°
2026-05-09 13:27 56.09048 53.72620 31084 ft 515 kts 84°
2026-05-09 13:28 56.09278 53.85441 31081 ft 515 kts 84°
2026-05-09 13:28 56.09495 53.98250 31080 ft 515 kts 85°
2026-05-09 13:29 56.09695 54.11073 31068 ft 515 kts 85°
2026-05-09 13:29 56.09884 54.23891 31075 ft 514 kts 85°
2026-05-09 13:30 56.10279 54.36631 31066 ft 509 kts 77°
2026-05-09 13:30 56.11269 54.49192 31014 ft 509 kts 77°
2026-05-09 13:31 56.12365 54.61746 31051 ft 511 kts 76°
2026-05-09 13:31 56.13468 54.74336 31053 ft 511 kts 76°
2026-05-09 13:32 56.14545 54.86927 31058 ft 510 kts 77°
2026-05-09 13:32 56.16115 55.05710 31039 ft 510 kts 77°
2026-05-09 13:33 56.17148 55.18288 31043 ft 510 kts 77°
2026-05-09 13:33 56.18170 55.30881 31035 ft 510 kts 77°
2026-05-09 13:34 56.19179 55.43482 31083 ft 510 kts 77°
2026-05-09 13:34 56.20178 55.56105 31025 ft 511 kts 77°
2026-05-09 13:35 56.21166 55.68754 31025 ft 512 kts 78°
2026-05-09 13:35 56.22142 55.81416 31024 ft 511 kts 78°
2026-05-09 13:36 56.23105 55.94077 31026 ft 511 kts 79°
2026-05-09 13:36 56.24056 56.06742 31077 ft 511 kts 79°
2026-05-09 13:37 56.24996 56.19440 31019 ft 513 kts 79°
2026-05-09 13:37 56.25924 56.32173 31017 ft 514 kts 79°
2026-05-09 13:38 56.26840 56.44914 31016 ft 514 kts 79°
2026-05-09 13:38 56.27742 56.57658 31017 ft 514 kts 79°
2026-05-09 13:39 56.28636 56.70411 31037 ft 514 kts 80°
2026-05-09 13:39 56.29524 56.83225 31015 ft 517 kts 80°
2026-05-09 13:40 56.30398 56.96082 31014 ft 517 kts 80°
2026-05-09 13:40 56.31258 57.08940 31009 ft 517 kts 80°
2026-05-09 13:41 56.32106 57.21805 30992 ft 516 kts 81°
2026-05-09 13:41 56.32937 57.34622 31020 ft 515 kts 82°
2026-05-09 13:42 56.33758 57.47469 31011 ft 517 kts 82°
2026-05-09 13:42 56.34565 57.60350 31003 ft 517 kts 82°
2026-05-09 13:43 56.35353 57.73153 31002 ft 517 kts 82°
2026-05-09 13:43 56.36140 57.86129 30997 ft 517 kts 82°
2026-05-09 13:44 56.36912 57.99030 31008 ft 529 kts 83°
2026-05-09 13:44 56.37698 58.12437 30998 ft 545 kts 83°
2026-05-09 13:45 56.38485 58.26193 30988 ft 554 kts 83°
2026-05-09 13:45 56.39262 58.40042 30972 ft 555 kts 83°
2026-05-09 13:46 56.40015 58.53757 30888 ft 533 kts 84°
2026-05-09 13:46 56.40371 58.60326 30955 ft 519 kts 85°
2026-05-09 13:46 56.40715 58.66724 30957 ft 517 kts 85°
2026-05-09 13:47 56.41401 58.79689 30804 ft 523 kts 85°
2026-05-09 13:47 56.41742 58.86237 29998 ft 525 kts 85°
2026-05-09 13:47 56.42083 58.92849 28612 ft 533 kts 84°
2026-05-09 13:48 56.42425 58.99546 27442 ft 537 kts 84°
2026-05-09 13:48 56.42763 59.06242 26378 ft 534 kts 84°
2026-05-09 13:48 56.43102 59.12868 25595 ft 529 kts 83°
2026-05-09 13:48 56.43479 59.19480 24805 ft 524 kts 82°
2026-05-09 13:49 56.43858 59.26008 24009 ft 521 kts 82°
2026-05-09 13:49 56.44233 59.32512 23240 ft 517 kts 82°
2026-05-09 13:49 56.44594 59.38865 22553 ft 509 kts 82°
2026-05-09 13:49 56.44951 59.45195 21761 ft 504 kts 82°
2026-05-09 13:50 56.45301 59.51467 21114 ft 497 kts 82°
2026-05-09 13:50 56.45642 59.57657 20450 ft 491 kts 82°
2026-05-09 13:50 56.45975 59.63763 19773 ft 486 kts 82°
2026-05-09 13:50 56.46302 59.69808 19172 ft 480 kts 82°
2026-05-09 13:51 56.46623 59.75790 18531 ft 475 kts 82°
2026-05-09 13:51 56.46938 59.81697 17971 ft 467 kts 83°
2026-05-09 13:51 56.47241 59.87479 17394 ft 455 kts 83°
2026-05-09 13:51 56.47534 59.93116 16584 ft 446 kts 83°
2026-05-09 13:52 56.47822 59.98674 15812 ft 441 kts 83°
2026-05-09 13:52 56.48099 60.04105 15282 ft 428 kts 83°
2026-05-09 13:52 56.48368 60.09415 14636 ft 419 kts 82°
2026-05-09 13:52 56.48623 60.14508 13905 ft 404 kts 82°
2026-05-09 13:53 56.48875 60.19554 13287 ft 398 kts 82°
2026-05-09 13:53 56.49115 60.24441 12532 ft 382 kts 81°
2026-05-09 13:53 56.49348 60.29197 11358 ft 377 kts 80°
2026-05-09 13:53 56.49571 60.33806 10892 ft 352 kts 80°
2026-05-09 13:54 56.49767 60.38009 10859 ft 319 kts 79°
2026-05-09 13:54 56.49948 60.41884 10567 ft 303 kts 78°
2026-05-09 13:54 56.50142 60.45747 9886 ft 314 kts 78°
2026-05-09 13:54 56.50338 60.49707 9329 ft 315 kts 79°
2026-05-09 13:55 56.50524 60.53634 8847 ft 312 kts 78°
2026-05-09 13:55 56.50706 60.57521 8532 ft 304 kts 78°
2026-05-09 13:55 56.50816 60.59984 8496 ft 288 kts 78°
2026-05-09 13:55 56.51013 60.64538 8454 ft 257 kts 77°
2026-05-09 13:56 56.51107 60.66653 8282 ft 253 kts 77°
2026-05-09 13:56 56.51264 60.69875 7645 ft 263 kts 76°
2026-05-09 13:56 56.51404 60.73220 7234 ft 271 kts 82°
2026-05-09 13:56 56.51053 60.76624 6900 ft 283 kts 111°
2026-05-09 13:57 56.49796 60.79314 6681 ft 282 kts 148°
2026-05-09 13:57 56.48032 60.80801 6610 ft 280 kts 162°
2026-05-09 13:57 56.46193 60.81984 6520 ft 281 kts 164°
2026-05-09 13:57 56.44349 60.83140 6447 ft 281 kts 163°
2026-05-09 13:58 56.42552 60.84534 6354 ft 282 kts 148°
2026-05-09 13:58 56.41106 60.86896 6303 ft 280 kts 129°
2026-05-09 13:58 56.39815 60.89666 6394 ft 305 kts 127°
2026-05-09 13:58 56.38421 60.92752 6414 ft 322 kts 127°
2026-05-09 13:59 56.37016 60.95839 5783 ft 320 kts 127°
2026-05-09 13:59 56.35922 60.99145 5407 ft 295 kts 103°
2026-05-09 13:59 56.35480 61.02609 5137 ft 272 kts 93°
2026-05-09 13:59 56.35186 61.05877 4915 ft 257 kts 91°
2026-05-09 14:00 56.35081 61.08956 4732 ft 233 kts 75°
2026-05-09 14:00 56.35311 61.10788 4638 ft 212 kts 58°
2026-05-09 14:00 56.36295 61.13413 4458 ft 175 kts 29°
2026-05-09 14:00 56.37237 61.14529 4306 ft 151 kts 11°
2026-05-09 14:01 56.38180 61.15034 4165 ft 133 kts 358°
2026-05-09 14:01 56.39054 61.15090 3958 ft 122 kts 347°
2026-05-09 14:01 56.39903 61.14939 3682 ft 122 kts 346°
2026-05-09 14:01 56.40747 61.14773 3429 ft 122 kts 346°
2026-05-09 14:02 56.41594 61.14609 3189 ft 122 kts 346°
2026-05-09 14:02 56.42426 61.14442 2956 ft 122 kts 346°
2026-05-09 14:02 56.43282 61.14270 2706 ft 122 kts 346°
2026-05-09 14:02 56.44119 61.14112 2457 ft 122 kts 347°
2026-05-09 14:03 56.44969 61.13954 2418 ft 123 kts 347°
2026-05-09 14:03 56.45820 61.13799 2433 ft 123 kts 347°
2026-05-09 14:03 56.46673 61.13641 2411 ft 123 kts 346°
2026-05-09 14:03 56.47524 61.13486 2399 ft 123 kts 346°
2026-05-09 14:04 56.48366 61.13328 2398 ft 123 kts 346°
2026-05-09 14:04 56.49215 61.13177 2400 ft 122 kts 347°
2026-05-09 14:04 56.50055 61.13014 2401 ft 121 kts 346°
2026-05-09 14:04 56.50893 61.12846 2400 ft 121 kts 346°
2026-05-09 14:05 56.51734 61.12685 2401 ft 121 kts 347°
2026-05-09 14:05 56.52573 61.12531 2404 ft 121 kts 346°
2026-05-09 14:05 56.53419 61.12430 2399 ft 123 kts 351°
2026-05-09 14:05 56.54277 61.12437 2412 ft 123 kts 352°
2026-05-09 14:06 56.55134 61.12444 2410 ft 123 kts 352°
2026-05-09 14:06 56.55989 61.12442 2404 ft 123 kts 352°
2026-05-09 14:06 56.56846 61.12443 2408 ft 123 kts 352°
2026-05-09 14:06 56.57701 61.12445 2409 ft 123 kts 351°
2026-05-09 14:07 56.58556 61.12449 2413 ft 123 kts 352°
2026-05-09 14:07 56.59412 61.12457 2403 ft 123 kts 352°
2026-05-09 14:07 56.60267 61.12471 2411 ft 123 kts 352°
2026-05-09 14:07 56.61123 61.12481 2412 ft 123 kts 352°
2026-05-09 14:08 56.61968 61.12486 2412 ft 123 kts 352°
2026-05-09 14:08 56.62822 61.12502 2411 ft 123 kts 352°
2026-05-09 14:08 56.63675 61.12506 2412 ft 122 kts 352°
2026-05-09 14:08 56.64528 61.12474 2409 ft 121 kts 348°
2026-05-09 14:09 56.65366 61.12337 2416 ft 121 kts 347°
2026-05-09 14:09 56.66204 61.12192 2416 ft 121 kts 347°
2026-05-09 14:09 56.67041 61.12042 2419 ft 121 kts 348°
2026-05-09 14:09 56.67879 61.11899 2425 ft 121 kts 347°
2026-05-09 14:10 56.69556 61.11611 2424 ft 121 kts 347°
2026-05-09 14:10 56.70387 61.11420 2412 ft 119 kts 342°
2026-05-09 14:10 56.71167 61.10948 2414 ft 117 kts 332°
2026-05-09 14:11 56.71853 61.10158 2399 ft 117 kts 321°
2026-05-09 14:11 56.72411 61.09100 2419 ft 118 kts 310°
2026-05-09 14:11 56.72787 61.07757 2426 ft 120 kts 297°
2026-05-09 14:11 56.73004 61.06274 2421 ft 122 kts 290°
2026-05-09 14:12 56.73099 61.05237 2426 ft 123 kts 287°
2026-05-09 14:12 56.73216 61.03165 2429 ft 125 kts 284°
2026-05-09 14:12 56.73278 61.01582 2419 ft 125 kts 284°
2026-05-09 14:12 56.73341 60.99998 2424 ft 125 kts 284°
2026-05-09 14:13 56.73406 60.98418 2440 ft 124 kts 284°
2026-05-09 14:14 56.73766 60.88076 1376 ft 118 kts 289°
2026-05-09 14:15 56.73893 60.86602 1324 ft 125 kts 280°
2026-05-09 14:15 56.73916 60.84972 1075 ft 129 kts 282°
2026-05-09 14:15 56.74015 60.83356 915 ft 129 kts 278°
2026-05-09 14:15 56.74073 60.81729 793 ft 125 kts 281°
2026-05-09 14:16 56.74137 60.80419 790 ft 82 kts 274°
2026-05-09 14:16 56.74174 60.79500 787 ft 64 kts 274°
2026-05-09 14:16 56.74204 60.79117 786 ft 9 kts 333°
2026-05-09 14:16 56.74255 60.79109 786 ft 6 kts
2026-05-09 14:17 56.74290 60.79116 786 ft 5 kts
2026-05-09 14:17 56.74304 60.79118 786 ft 0 kts
2026-05-09 14:18 56.74305 60.79119 786 ft 2 kts
2026-05-09 14:18 56.74396 60.79145 786 ft 18 kts
2026-05-09 14:19 56.74520 60.79186 789 ft 18 kts
2026-05-09 14:19 56.74569 60.79186 790 ft 0 kts
2026-05-09 14:21 56.74570 60.79186 790 ft 1 kts
2026-05-09 14:22 56.74592 60.79186 790 ft 5 kts
2026-05-09 14:22 56.74636 60.79191 790 ft 6 kts 14°
2026-05-09 14:22 56.74649 60.79224 790 ft 2 kts 71°
2026-05-09 14:22 56.74657 60.79271 790 ft 6 kts 72°
2026-05-09 14:23 56.74670 60.79367 790 ft 6 kts 95°
2026-05-09 14:23 56.74665 60.79470 790 ft 10 kts 95°
2026-05-09 14:23 56.74662 60.79627 790 ft 14 kts 91°
2026-05-09 14:23 56.74661 60.79822 790 ft 16 kts 90°
2026-05-09 14:24 56.74660 60.80025 790 ft 16 kts 90°
2026-05-09 14:24 56.74660 60.80229 790 ft 16 kts 89°
2026-05-09 14:24 56.74661 60.80435 790 ft 16 kts 89°
2026-05-09 14:24 56.74669 60.80635 790 ft 12 kts 64°
2026-05-09 14:25 56.74715 60.80648 789 ft 6 kts 358°
2026-05-09 14:25 56.74758 60.80645 789 ft 6 kts 358°
2026-05-09 14:25 56.74803 60.80643 789 ft 7 kts 358°
2026-05-09 14:25 56.74842 60.80654 789 ft 4 kts 41°
2026-05-09 14:26 56.74848 60.80681 789 ft 1 kts 70°
2026-05-09 14:26 56.74850 60.80699 789 ft 1 kts 76°
2026-05-09 14:26 56.74853 60.80721 789 ft 2 kts 76°
2026-05-09 14:26 56.74853 60.80740 789 ft 1 kts 94°
2026-05-09 14:27 56.74846 60.80754 789 ft 3 kts 135°
2026-05-09 14:27 56.74831 60.80763 789 ft 1 kts 163°
2026-05-09 14:27 56.74818 60.80769 789 ft 2 kts 169°
2026-05-09 14:27 56.74805 60.80771 789 ft 2 kts 175°
2026-05-09 14:28 56.74790 60.80773 789 ft 2 kts 176°
2026-05-09 14:28 56.74779 60.80773 792 ft 0 kts 179°